Regional Weather Roundup
Issued by NWS

Home | Current Version | Previous Version | Text Only | Print | Product List | Glossary Off
Versions: 1 2 3 4 5 6 7 8 9 10 11 12 13 14 15 16 17 18 19 20 21 22 23 24 25 26 27 28 29 30 31 32 33 34 35 36 37 38 39 40 41 42 43 44 45 46 47 48 49 50

000
ASUS45 KTFX 300604
RWRMT
MONTANA HOURLY WEATHER ROUNDUP
NATIONAL WEATHER SERVICE GREAT FALLS MT
1204 AM MDT WED JUL 30 2014

NOTE: "FAIR" INDICATES FEW OR NO CLOUDS BELOW 12000 FEET WITH NO
SIGNIFICANT WEATHER AND/OR OBSTRUCTIONS TO VISIBILITY.

* THESE STATIONS ARE NOT UNDER NWS QUALITY CONTROL. THEY DO NOT
   REPORT WEATHER SUCH AS PRECIPITATION OR FOG.

MTZ001>007-043-300700-
WEST OF THE DIVIDE
CITY           SKY/WX    TMP DP  RH WIND       PRES   REMARKS
KALISPELL      CLEAR     68  48  49 NW5       30.08F
MISSOULA       PTCLDY    72  39  30 CALM      30.11R
BUTTE          MOCLDY    64  45  50 CALM      30.29R
MULLAN PASS    MOCLDY    72  36  27 CALM      30.30S
* LINCOLN      N/A       61  48  62 SE2        N/A
* LOOKOUT PASS N/A       68  42  39 S3         N/A
* POLSON       N/A       71  44  38 E1         N/A
* RONAN APT    CLEAR     68  54  61 N/A        N/A
* SEELEY LAKE  N/A       62  48  60 NE2        N/A
* THOMP F APT  CLEAR     59  45  60 N8         N/A
* YAAK HILL    N/A       69  46  44 NE1        N/A
$$

MTZ008-052>055-300700-
SOUTHWEST MONTANA
CITY           SKY/WX    TMP DP  RH WIND       PRES   REMARKS
BOZEMAN        PTCLDY    68  46  45 SW7       30.22R
DILLON         CLOUDY    63  48  58 SW8       30.26S
W YELLOWSTONE  PTCLDY    50  50 100 CALM      30.39S
* THREE FORKS  PTCLDY    66  55  68 N/A        N/A
* BOULDER HILL N/A       65  40  40 S3         N/A
* MONIDA PASS  N/A       55  49  80 VRB3       N/A
* RAYNOLDS PAS N/A       51  34  52 SE4        N/A
* WHITEHALL    N/A       67  47  49 NW4G11     N/A
* WISE RIVER   N/A       64  42  45 SW7        N/A
$$

MTZ009>010-012-014-046-048-049-054-300700-
EAST SLOPES AND CENTRAL MONTANA
CITY           SKY/WX    TMP DP  RH WIND       PRES   REMARKS
CUT BANK       PTCLDY    72  41  33 SE3       30.17S
GREAT FALLS    PTCLDY    70  43  38 CALM      30.15S
HELENA         PTCLDY    70  46  42 CALM      30.18R
MALMSTROM AFB  PTCLDY    66  45  47 SE9       30.16S
* CONRAD       PTCLDY    55  52  90 N/A        N/A
* EAST GLACIER N/A       58  49  72 NW5        N/A
* MONARCH      N/A       61  42  50 S9         N/A
* ROGERS PASS  N/A       62  41  46 NW2        N/A
* SAINT MARY   N/A       54  47  77 SE3        N/A
* SWEET GRASS  N/A       72  39  30 S11        N/A
$$

MTZ011-013-016-021-035-040-045-047-050-051-300700-
NORTH CENTRAL MONTANA
CITY           SKY/WX    TMP DP  RH WIND       PRES   REMARKS
HAVRE          CLEAR     77  45  32 SE10      30.12F
LEWISTOWN      CLEAR     66  41  40 E12       30.23R
* CHESTER      N/A       74  41  31 E8G13      N/A
* DENTON       N/A       65  42  43 SE9        N/A
* GEYSER       N/A       64  45  50 S8         N/A
* JUDITH GAP   N/A       69  40  35 E12        N/A
* LOMA         N/A       74  42  32 NE9        N/A
$$

MTZ017>020-022>027-061-062-300700-
NORTHEAST MONTANA
CITY           SKY/WX    TMP DP  RH WIND       PRES   REMARKS
GLASGOW        CLEAR     66  50  56 SE8       30.17R
GLENDIVE       CLEAR     64  48  56 N6        30.20R
JORDAN         CLEAR     63  43  48 CALM      30.18S
SIDNEY         CLEAR     63  54  73 NW7       30.19R
WOLF POINT     CLEAR     63  50  63 NE6       30.18R
* BEAVER HILL  N/A       63  51  65 E7         N/A
* CIRCLE       N/A       66  51  59 N/A        N/A
* LINDSAY DVD  N/A       63  50  63 NE4        N/A
$$

MTZ028>042-056>058-300700-
SOUTHCENTRAL AND SOUTHEAST MONTANA
CITY           SKY/WX    TMP DP  RH WIND       PRES   REMARKS
BAKER          CLEAR     61  48  62 CALM      30.19F
BILLINGS       CLEAR     72  52  49 S7        30.21R
LIVINGSTON     MOCLDY    70  46  42 E6        30.24R
MILES CITY     CLEAR     66  45  47 N9        30.17S
* LAUREL APT   CLEAR     68  52  57 N/A        N/A
* ROUNDUP APT  CLEAR     72  37  28 N/A        N/A
* ALZADA       N/A       61  54  78 E4         N/A
* HYSHAM       N/A       70  40  34 E8         N/A
* LAME DEER    N/A       68  41  38 NE8        N/A
* REED POINT   N/A       69  55  61 SE1        N/A
* ROSCOE HILL  N/A       63  46  54 SE7        N/A
$$

REGIONAL REPORTS...DAKOTAS
CITY           SKY/WX    TMP DP  RH WIND       PRES   REMARKS
WILLISTON      CLEAR     61  57  87 N5        30.18R
DICKINSON      CLEAR     55  54  96 W5        30.17S
CROSBY         N/A       54  54 100 NW3       30.19S
TIOGA          CLEAR     55  55 100 W3        30.22R
WATFORD CITY   CLEAR     59  57  93 CALM      30.16S
BISMARCK       CLEAR     63  57  81 NE3       30.17R
GRAND FORKS    PTCLDY    57  54  90 W6        30.11R
FARGO          CLEAR     57  54  90 CALM      30.11S
BUFFALO SD     PTCLDY    63  52  68 W13       30.11F
RAPID CITY     PTCLDY    59  52  78 W7        30.21S
$$

REGIONAL REPORTS...WYOMING/IDAHO/WASHINGTON
CITY           SKY/WX    TMP DP  RH WIND       PRES   REMARKS
GILLETTE       PTCLDY    61  55  81 SW12      30.27R
SHERIDAN       PTCLDY    57  48  72 SW3       30.24R
YELLOWSTONE LA PTCLDY    45  43  93 NW5       30.47S
SALMON         CLOUDY    64  52  65 W3        30.18R
MULLAN PASS    MOCLDY    72  36  27 CALM      30.30S
SAND POINT     PTCLDY    61  50  67 W3        30.01R
SPOKANE        PTCLDY    84  34  17 SW7       30.01S

$$




USA.gov is the U.S. government's official web portal to all federal, state and local government web resources and services.